weather.gov     
National Weather Service

Regional Weather Roundup
NWS Homepage
This page is being discontinued on March 12, 2014.
The same data is available at this site. Please update your bookmarks.
Thank you, and we apologize for the inconvenience.
Please send an email to SR-SRH.Webmaster@noaa.gov with any concerns.


Current Version
Previous Version:    01  02  03  04  05  06  07  08  09  10  11  12  13  14  15  16  17  18  19  20  21  22  23  24  25  26  27  28  29  30  
   31  32  33  34  35  36  37  38  39  40  41  42  43  44  45  46  47  48  49  50  51  52  53  54  55  56  57  58  59  60  
[Printable]
217
ASCA44 KEWX 300220
RWRMX

LATIN AMERICA AND CARIBBEAN REGIONAL WEATHER ROUNDUP
NATIONAL WEATHER SERVICE AUSTIN/SAN ANTONIO TX
900 PM CDT FRI AUG 29 2014

NOTE: "FAIR" INDICATED FEW OR NO CLOUDS BELOW 12,000 FEET WITH NO
SIGNIFICANT WEATHER AND/OR OBSTRUCTIONS TO VISIBILITY.

BAJA CALIFORNIA

CITY           SKY/WX    TMP DP  RH WIND       PRES   REMARKS
LORETO           N/A    N/A N/A N/A MISG        N/A
LA PAZ         PTCLDY    93  70  46 S9        29.70  HX  99
MEXICALI       CLEAR    108  36   8 S3        29.63  HX 101
S.J. DEL CABO  PTCLDY    90  70  51 E7        29.70R HX  95
TIJUANA        CLEAR     72  61  68 W9        29.84S

NORTHWESTERN MEXICO

CITY           SKY/WX    TMP DP  RH WIND       PRES   REMARKS
CULIACAN       MOCLDY    81  75  83 E12       29.76
DURANGO        MOCLDY    75  50  41 N5        30.09R
GUAYMAS        CLEAR     95  79  59 CALM      29.61  HX 112
HERMOSILLO     CLEAR    102  46  15 S9        29.70  HX  98
CD. JUAREZ     PTCLDY    88  48  25 S6        29.93
LOS MOCHIS     PTCLDY    90  75  62 W9        29.70R HX 100
OBREGON        CLEAR     93  72  49 SW5       29.65  HX 100

NORTHEASTERN MEXICO

CITY           SKY/WX    TMP DP  RH WIND       PRES   REMARKS
CHIHUAHUA      PTCLDY    82  45  26 N7        30.00
MATAMOROS      MOCLDY    84  81  89 NE6       29.81  HX  98
MONTERREY      MOCLDY    88  64  45 E12       29.75F
NUEVO LAREDO   PTCLDY    91  75  59 E14       29.79  HX 102
REYNOSA        MOCLDY    73  70  88 E3        29.80
SALTILLO       PTCLDY    79  64  61 NE17      30.04R
TORREON        MOCLDY    84  57  39 NE6       29.90R
CD. VICTORIA   PTCLDY    86  64  48 S3        29.79

WESTERN MEXICO

CITY           SKY/WX    TMP DP  RH WIND       PRES   REMARKS
AGUASCALIENTES PTCLDY    64  57  77 SW7       30.15
COLIMA         MOCLDY    73  70  88 CALM      29.91R
DEL BAJIO      MOCLDY    66  59  77 NE2       30.15R
GUADALAJARA    CLOUDY    66  59  77 SW8       30.07
MANZANILLO     CLOUDY    81  75  83 NE6       29.72R
MAZATLAN       LGT RAIN  77  73  88 NE3       29.76R
P. VALLARTA    CLOUDY    81  77  89 CALM      29.76R THUNDER
ZACATECAS      MOCLDY    66  46  48 SE12      30.18R

CENTRAL MEXICO

CITY           SKY/WX    TMP DP  RH WIND       PRES   REMARKS
MEXICO CITY    MOCLDY    70  50  49 NE17      30.18R
MORELIA        PTCLDY    68  57  68 NW5       30.08
POZA RICA      PTCLDY    84  77  79 E12       29.78R HX  94
PUEBLA         MOCLDY    63  52  67 N7        30.23R
QUERETARO      MOCLDY    72  52  49 E6        30.12R
S. LUIS POTOSI PTCLDY    70  54  56 E9        30.10R
TAMPICO        CLEAR     84  75  74 SE12      29.79R HX  92
TOLUCA         PTCLDY    59  50  72 SE8       30.25R

SOUTHERN MEXICO

CITY           SKY/WX    TMP DP  RH WIND       PRES   REMARKS
ACAPULCO       MOCLDY    82  73  74 W6        29.76R
OAXACA         RAIN      61  57  88 S8        30.12S
VERACRUZ       MOCLDY    84  75  74 E7        29.82R HX  92
ZIHUATANEJO    PTCLDY    84  75  74 NW3       29.78R HX  92

YUCATAN PENINSULA

CITY           SKY/WX    TMP DP  RH WIND       PRES   REMARKS
CAMPECHE       CLEAR     82  75  78 NE15      29.83R
CANCUN         PTCLDY    82  77  83 E6        29.95R HX  91
CHETUMAL       PTCLDY    84  77  79 E7        29.87R HX  94
CD. DEL CARMEN   N/A    N/A N/A N/A MISG        N/A
COZUMEL        PTCLDY    73  73 100 CALM      29.94R
MERIDA         MOCLDY    79  72  78 E9        29.89R
TAPACHULA      MOCLDY    75  73  94 CALM      29.87R
TUX. GUTIERREZ LGT RAIN  72  70  94 NW5       29.93R
VILLAHERMOSA   CLOUDY    77  73  88 CALM      29.84R

CENTRAL AMERICA

CITY           SKY/WX    TMP DP  RH WIND       PRES   REMARKS

CARIBBEAN

CITY           SKY/WX    TMP DP  RH WIND       PRES   REMARKS
ARUBA          PTCLDY    84  75  74 E26       29.89S HX  92
CURACAO          N/A     82  75  78 E18       29.97R
KINGSTON       TSTM      77  73  88 E12       29.94R
NASSAU         MOCLDY    84  75  74 E6        30.10R HX  92
SAN JUAN       PTCLDY    82  75  78 CALM      30.06R
SANTO DOMINGO  LGT RAIN  75  72  88 CALM        N/A
ST. CROIX      CLEAR     79  73  83 NE3       30.06R
ST. KITTS      PTCLDY    81  75  83 E14       30.03S
ST. MAARTEN    MOCLDY    81  75  83 E10       30.06R

$$





U.S. Dept. of Commerce
NOAA National Weather Service
1325 East West Highway
Silver Spring, MD 20910
E-mail: w-nws.webmaster@noaa.gov
Page last modified: May 16, 2007
NATIONAL WEATHER SERVICE: for Safety, for Work, for Fun - FOR LIFE